Regional Weather Roundup
Issued by NWS Glasgow, MT

Home | Current Version | Previous Version | Text Only | Print | Product List | Glossary On
Versions: 1 2 3 4 5 6 7 8 9 10 11 12 13 14 15 16 17 18 19 20 21 22 23 24 25 26 27 28 29 30 31 32 33 34 35 36 37 38 39 40 41 42 43 44 45 46 47 48 49 50
000
ASUS45 KGGW 171415
RWRGGW
HOURLY REGIONAL WEATHER ROUNDUP FOR NORTHEAST MONTANA
NATIONAL WEATHER SERVICE GLASGOW MONTANA
700 AM MST TUE JAN 17 2017

NOTE: "FAIR" INDICATES FEW OR NO CLOUDS BELOW 12,000 FEET WITH NO
SIGNIFICANT WEATHER AND/OR OBSTRUCTIONS TO VISISBILITY.

NORTHEAST MONTANA


CITY           SKY/WX    TMP DP  RH WIND       PRES   REMARKS
GLASGOW        CLOUDY    13   8  81 SE9       29.74F
PLENTYWOOD       N/A     14  10  84 SE8         N/A
WOLF POINT     CLOUDY     2  -4  76 CALM      29.78F
JORDAN           N/A     30  18  60 SW12      29.77F
SIDNEY         CLOUDY    13   7  77 S13       29.81F WCI  -2
GLENDIVE       CLOUDY    12   6  77 S18       29.83F WCI  -6
MALTA            N/A     13  10  88 SE1         N/A
SCOBEY           N/A     18   4  54 SE6       29.71F

FORT PECK REPORTS


CITY           SKY/WX    TMP DP  RH WIND       PRES   REMARKS
FORT PECK        N/A     25  17  72 SE9         N/A
THE PINES        N/A     29  17  61 SW3         N/A

SOUTHEAST MONTANA


CITY           SKY/WX    TMP DP  RH WIND       PRES   REMARKS
BILLINGS       CLOUDY    26  12  55 SW25      29.88S
MILES CITY     CLOUDY     8   1  73 S8        29.86F
BAKER          NOT AVBL
LIVINGSTON     NOT AVBL

CENTRAL MONTANA


CITY           SKY/WX    TMP DP  RH WIND       PRES   REMARKS
HAVRE          CLOUDY    35  24  64 SW28G38   29.74S
LEWISTOWN      CLOUDY    28  16  60 NE3       29.82S
GREAT FALLS    CLOUDY    34  15  46 SW25      29.84R
CUT BANK       CLOUDY    39  23  52 W30G41    29.77R
HELENA         CLOUDY     5  -1  76 CALM      30.08S
BUTTE          CLOUDY    -1  -6  79 S3        30.04S
BOZEMAN        CLOUDY     2  -4  76 CALM      30.07R

WESTERN MONTANA


CITY           SKY/WX    TMP DP  RH WIND       PRES   REMARKS
MISSOULA       PTCLDY    -1  -4  87 CALM      30.15F FOG
KALISPELL      NOT AVBL

NORTH DAKOTA


CITY           SKY/WX    TMP DP  RH WIND       PRES   REMARKS
WILLISTON      CLOUDY     9   5  84 S8        29.80F
DICKINSON      CLOUDY    16   8  71 S16       29.81F
MINOT          CLOUDY    17  10  74 SW10      29.80F
BISMARCK       CLOUDY     2  -2  83 SE3       29.94F

SOUTHERN SASKATCHEWAN


CITY           SKY/WX    TMP DP  RH WIND       PRES   REMARKS
REGINA         PTCLDY    18  12  79 SE12      29.58F
MOOSE JAW      MOCLDY    32  21  64 SW23G32   29.55F
ESTEVAN        PTCLDY    18  10  73 SW21G28   29.72F
SWIFT CURRENT  CLEAR     34  25  69 SW24      29.51F




USA.gov is the U.S. government's official web portal to all federal, state and local government web resources and services.